HULIANWAN GAOGUI-02 (H*)

Last updated on Tue Oct 14 2025 00:02:51 GMT+0000 (Coordinated Universal Time)

1 60327U 24135A 25286.52336251 -.00000186 00000+0 00000+0 0 9997 2 60327 0.0395 73.8238 0002790 189.3107 100.6971 1.00269105 5020
UTC large
Height (km)
Speed (km/s)
/
Latitude / Longitude
Inclination (degrees)
Orbital Period (minutes)
Azimuth
Elevation
Range (km)
Doppler Factor

Next 0 passes for location: London (51.5072 / 0.1276)

Sorry there are no passes over London.